| time (UTC) | temp F | wind direction | speed MPH | gust MPH | rain 1hr in | rain 24hr in | rain mn in | humidity % | barometer mb |
| 20260507111022 | 37 | 0 | 0.0 | 0.0 | 0.00 | 0.00 | 0.00 | 61 | 1014.4 |
| 20260507110022 | 37 | 0 | 0.0 | 0.0 | 0.00 | 0.00 | 0.00 | 61 | 1014.4 |
| 20260507105520 | 37 | 0 | 0.0 | 0.0 | 0.00 | 0.00 | 0.00 | 60 | 1014.3 |
| 20260507105021 | 38 | 0 | 0.0 | 0.0 | 0.00 | 0.00 | 0.00 | 60 | 1014.3 |
| 20260507104520 | 38 | 0 | 0.0 | 0.0 | 0.00 | 0.00 | 0.00 | 60 | 1014.2 |
| 20260507104022 | 38 | 0 | 0.0 | 0.0 | 0.00 | 0.00 | 0.00 | 60 | 1014.3 |
| 20260507103520 | 38 | 0 | 0.0 | 0.0 | 0.00 | 0.00 | 0.00 | 60 | 1014.3 |
| 20260507102518 | 38 | 0 | 0.0 | 0.0 | 0.00 | 0.00 | 0.00 | 60 | 1014.2 |
| 20260507102017 | 38 | 0 | 0.0 | 0.0 | 0.00 | 0.00 | 0.00 | 60 | 1014.3 |
| 20260507101518 | 38 | 0 | 0.0 | 0.0 | 0.00 | 0.00 | 0.00 | 60 | 1014.2 |
| 20260507101016 | 38 | 0 | 0.0 | 0.0 | 0.00 | 0.00 | 0.00 | 60 | 1014.3 |
| 20260507100517 | 38 | 0 | 0.0 | 0.0 | 0.00 | 0.00 | 0.00 | 60 | 1014.4 |
| 20260507100017 | 38 | 0 | 0.0 | 0.0 | 0.00 | 0.00 | 0.00 | 60 | 1014.4 |
| 20260507095518 | 38 | 0 | 0.0 | 0.0 | 0.00 | 0.00 | 0.00 | 61 | 1014.3 |
| 20260507095016 | 38 | 0 | 0.0 | 0.0 | 0.00 | 0.00 | 0.00 | 61 | 1014.3 |
| 20260507094518 | 38 | 0 | 0.0 | 0.0 | 0.00 | 0.00 | 0.00 | 61 | 1014.3 |
| 20260507094013 | 38 | 0 | 0.0 | 0.0 | 0.00 | 0.00 | 0.00 | 61 | 1014.4 |
| 20260507093512 | 38 | 0 | 0.0 | 0.0 | 0.00 | 0.00 | 0.00 | 61 | 1014.3 |
| 20260507093014 | 38 | 0 | 0.0 | 0.0 | 0.00 | 0.00 | 0.00 | 61 | 1014.4 |
| 20260507092512 | 38 | 0 | 0.0 | 0.0 | 0.00 | 0.00 | 0.00 | 60 | 1014.3 |
| 20260507092013 | 38 | 0 | 0.0 | 0.0 | 0.00 | 0.00 | 0.00 | 60 | 1014.4 |
| 20260507091513 | 38 | 0 | 0.0 | 0.0 | 0.00 | 0.00 | 0.00 | 60 | 1014.3 |
| 20260507091014 | 38 | 0 | 0.0 | 0.0 | 0.00 | 0.00 | 0.00 | 60 | 1014.3 |
| 20260507090512 | 38 | 0 | 0.0 | 0.0 | 0.00 | 0.00 | 0.00 | 60 | 1014.4 |
| 20260507085510 | 38 | 0 | 0.0 | 0.0 | 0.00 | 0.00 | 0.00 | 60 | 1014.5 |
| 20260507084509 | 38 | 0 | 0.0 | 1.0 | 0.00 | 0.00 | 0.00 | 60 | 1014.3 |
| 20260507084008 | 38 | 0 | 0.0 | 0.0 | 0.00 | 0.00 | 0.00 | 60 | 1014.3 |
| 20260507083510 | 38 | 0 | 0.0 | 0.0 | 0.00 | 0.00 | 0.00 | 60 | 1014.2 |
| 20260507083010 | 38 | 0 | 0.0 | 0.0 | 0.00 | 0.00 | 0.00 | 60 | 1014.2 |
| 20260507082511 | 38 | 0 | 0.0 | 0.0 | 0.00 | 0.00 | 0.00 | 60 | 1014.2 |
| 20260507082010 | 38 | 0 | 0.0 | 2.0 | 0.00 | 0.00 | 0.00 | 60 | 1014.2 |
| 20260507081507 | 38 | 0 | 0.0 | 2.0 | 0.00 | 0.00 | 0.00 | 59 | 1014.3 |
| 20260507081003 | 38 | 0 | 0.0 | 0.0 | 0.00 | 0.00 | 0.00 | 59 | 1014.3 |
| 20260507080455 | 38 | 0 | 0.0 | 0.0 | 0.00 | 0.00 | 0.00 | 59 | 1014.4 |
| 20260507075956 | 38 | 0 | 0.0 | 0.0 | 0.00 | 0.00 | 0.00 | 59 | 1014.3 |
| 20260507075452 | 38 | 0 | 0.0 | 0.0 | 0.00 | 0.00 | 0.00 | 59 | 1014.4 |
| 20260507074951 | 38 | 0 | 0.0 | 0.0 | 0.00 | 0.00 | 0.00 | 59 | 1014.5 |
| 20260507074448 | 38 | 0 | 0.0 | 0.0 | 0.00 | 0.00 | 0.00 | 58 | 1014.4 |
| 20260507073948 | 38 | 0 | 0.0 | 0.0 | 0.00 | 0.00 | 0.00 | 58 | 1014.4 |
| 20260507072445 | 38 | 0 | 0.0 | 0.0 | 0.00 | 0.00 | 0.00 | 58 | 1014.5 |
| 20260507071444 | 39 | 0 | 0.0 | 0.0 | 0.00 | 0.00 | 0.00 | 58 | 1014.6 |
| 20260507070942 | 39 | 0 | 0.0 | 0.0 | 0.00 | 0.00 | 0.00 | 58 | 1014.6 |
| 20260507070440 | 39 | 0 | 0.0 | 0.0 | 0.00 | 0.00 | 0.00 | 58 | 1014.5 |
| 20260507065940 | 39 | 0 | 0.0 | 0.0 | 0.00 | 0.00 | 0.00 | 58 | 1014.4 |
| 20260507065438 | 39 | 0 | 0.0 | 1.0 | 0.00 | 0.00 | 0.00 | 58 | 1014.4 |
| 20260507064934 | 39 | 0 | 0.0 | 1.0 | 0.00 | 0.00 | 0.00 | 57 | 1014.5 |
| 20260507064435 | 39 | 0 | 0.0 | 2.0 | 0.00 | 0.00 | 0.00 | 57 | 1014.5 |
| 20260507063934 | 39 | 0 | 0.0 | 4.0 | 0.00 | 0.00 | 0.00 | 57 | 1014.5 |
| 20260507063431 | 39 | 0 | 0.0 | 4.0 | 0.00 | 0.00 | 0.00 | 57 | 1014.4 |
| 20260507062930 | 39 | 0 | 0.0 | 0.0 | 0.00 | 0.00 | 0.00 | 56 | 1014.5 |
| 20260507062431 | 39 | 0 | 0.0 | 0.0 | 0.00 | 0.00 | 0.00 | 56 | 1014.5 |
| 20260507061929 | 39 | 0 | 0.0 | 0.0 | 0.00 | 0.00 | 0.00 | 55 | 1014.5 |
| 20260507061430 | 39 | 0 | 0.0 | 0.0 | 0.00 | 0.00 | 0.00 | 55 | 1014.5 |
| 20260507060430 | 40 | 0 | 0.0 | 0.0 | 0.00 | 0.00 | 0.00 | 54 | 1014.5 |
| 20260507055928 | 40 | 0 | 0.0 | 0.0 | 0.00 | 0.00 | 0.00 | 54 | 1014.5 |
| 20260507055424 | 40 | 0 | 0.0 | 0.0 | 0.00 | 0.00 | 0.00 | 53 | 1014.6 |
| 20260507054923 | 40 | 0 | 0.0 | 0.0 | 0.00 | 0.00 | 0.00 | 53 | 1014.5 |
| 20260507053924 | 41 | 0 | 0.0 | 0.0 | 0.00 | 0.00 | 0.00 | 53 | 1014.6 |
| 20260507053423 | 41 | 0 | 0.0 | 0.0 | 0.00 | 0.00 | 0.00 | 52 | 1014.5 |
| 20260507052921 | 41 | 0 | 0.0 | 0.0 | 0.00 | 0.00 | 0.00 | 52 | 1014.5 |
| 20260507052419 | 42 | 0 | 0.0 | 0.0 | 0.00 | 0.00 | 0.00 | 52 | 1014.6 |
| 20260507051920 | 42 | 0 | 0.0 | 0.0 | 0.00 | 0.00 | 0.00 | 51 | 1014.6 |
| 20260507051418 | 42 | 0 | 0.0 | 0.0 | 0.00 | 0.00 | 0.00 | 51 | 1014.6 |
| 20260507050419 | 42 | 0 | 0.0 | 0.0 | 0.00 | 0.00 | 0.00 | 50 | 1014.5 |
| 20260507045916 | 43 | 0 | 0.0 | 0.0 | 0.00 | 0.00 | 0.00 | 50 | 1014.5 |
| 20260507045414 | 43 | 0 | 0.0 | 0.0 | 0.00 | 0.00 | 0.00 | 50 | 1014.5 |
| 20260507044916 | 43 | 0 | 0.0 | 0.0 | 0.00 | 0.00 | 0.00 | 50 | 1014.5 |
| 20260507044410 | 43 | 0 | 0.0 | 0.0 | 0.00 | 0.00 | 0.00 | 49 | 1014.5 |
| 20260507043902 | 43 | 0 | 0.0 | 0.0 | 0.00 | 0.00 | 0.00 | 49 | 1014.6 |
| 20260507043356 | 43 | 0 | 0.0 | 0.0 | 0.00 | 0.00 | 0.00 | 48 | 1014.6 |
| 20260507042855 | 44 | 0 | 0.0 | 0.0 | 0.00 | 0.00 | 0.00 | 48 | 1014.6 |
| 20260507042353 | 44 | 0 | 0.0 | 0.0 | 0.00 | 0.00 | 0.00 | 48 | 1014.5 |
| 20260507041852 | 44 | 0 | 0.0 | 0.0 | 0.00 | 0.00 | 0.00 | 48 | 1014.6 |
| 20260507040851 | 44 | 0 | 0.0 | 0.0 | 0.00 | 0.00 | 0.00 | 47 | 1014.6 |
| 20260507040350 | 44 | 0 | 0.0 | 0.0 | 0.00 | 0.00 | 0.00 | 47 | 1014.6 |
| 20260507035849 | 45 | 0 | 0.0 | 0.0 | 0.00 | 0.00 | 0.00 | 46 | 1014.7 |
| 20260507035351 | 45 | 0 | 0.0 | 0.0 | 0.00 | 0.00 | 0.00 | 46 | 1014.6 |
| 20260507034847 | 45 | 0 | 0.0 | 0.0 | 0.00 | 0.00 | 0.00 | 46 | 1014.6 |
| 20260507034346 | 45 | 0 | 0.0 | 0.0 | 0.00 | 0.00 | 0.00 | 45 | 1014.6 |
| 20260507033843 | 46 | 0 | 0.0 | 2.0 | 0.00 | 0.00 | 0.00 | 45 | 1014.6 |
| 20260507033343 | 46 | 0 | 1.0 | 2.0 | 0.00 | 0.00 | 0.00 | 45 | 1014.6 |
| 20260507032840 | 46 | 0 | 1.0 | 3.0 | 0.00 | 0.00 | 0.00 | 45 | 1014.6 |
| 20260507031838 | 46 | 0 | 0.0 | 5.0 | 0.00 | 0.00 | 0.00 | 44 | 1014.6 |
| 20260507031337 | 47 | 0 | 1.0 | 5.0 | 0.00 | 0.00 | 0.00 | 44 | 1014.6 |
| 20260507030833 | 47 | 0 | 2.0 | 5.0 | 0.00 | 0.00 | 0.00 | 43 | 1014.6 |
| 20260507030331 | 47 | 0 | 2.0 | 4.0 | 0.00 | 0.00 | 0.00 | 43 | 1014.7 |
| 20260507025329 | 47 | 0 | 2.0 | 4.0 | 0.00 | 0.00 | 0.00 | 43 | 1014.5 |
| 20260507024829 | 47 | 0 | 2.0 | 6.0 | 0.00 | 0.00 | 0.00 | 42 | 1014.5 |
| 20260507024329 | 48 | 0 | 2.0 | 6.0 | 0.00 | 0.00 | 0.00 | 42 | 1014.4 |
| 20260507023316 | 48 | 0 | 2.0 | 8.0 | 0.00 | 0.00 | 0.00 | 42 | 1014.3 |
| 20260507022810 | 48 | 0 | 2.0 | 4.0 | 0.00 | 0.00 | 0.00 | 42 | 1014.3 |
| 20260507022306 | 48 | 0 | 2.0 | 8.0 | 0.00 | 0.00 | 0.00 | 41 | 1014.2 |
| 20260507021758 | 49 | 0 | 2.0 | 8.0 | 0.00 | 0.00 | 0.00 | 41 | 1014.1 |
| 20260507021252 | 49 | 0 | 2.0 | 5.0 | 0.00 | 0.00 | 0.00 | 40 | 1014.1 |
| 20260507020745 | 49 | 0 | 2.0 | 6.0 | 0.00 | 0.00 | 0.00 | 40 | 1014.0 |
| 20260507015734 | 49 | 0 | 3.0 | 9.0 | 0.00 | 0.00 | 0.00 | 39 | 1013.8 |
| 20260507015228 | 49 | 0 | 3.0 | 9.0 | 0.00 | 0.00 | 0.00 | 39 | 1013.7 |
| 20260507014216 | 50 | 0 | 3.0 | 5.0 | 0.00 | 0.00 | 0.00 | 40 | 1013.6 |
| 20260507012658 | 51 | 0 | 3.0 | 6.0 | 0.00 | 0.00 | 0.00 | 39 | 1013.5 |
| 20260507012152 | 51 | 0 | 3.0 | 8.0 | 0.00 | 0.00 | 0.00 | 39 | 1013.4 |
| 20260507011646 | 51 | 0 | 3.0 | 8.0 | 0.00 | 0.00 | 0.00 | 39 | 1013.4 |
| 20260507011140 | 51 | 0 | 2.0 | 8.0 | 0.00 | 0.00 | 0.00 | 39 | 1013.3 |
| 20260507010634 | 51 | 0 | 2.0 | 5.0 | 0.00 | 0.00 | 0.00 | 38 | 1013.3 |
| 20260507010128 | 52 | 0 | 2.0 | 5.0 | 0.00 | 0.00 | 0.00 | 37 | 1013.2 |
| 20260507005621 | 52 | 0 | 2.0 | 5.0 | 0.00 | 0.00 | 0.00 | 37 | 1013.2 |
| 20260507004103 | 53 | 0 | 4.0 | 10.0 | 0.00 | 0.00 | 0.00 | 35 | 1013.1 |
| 20260507003558 | 53 | 0 | 4.0 | 10.0 | 0.00 | 0.00 | 0.00 | 35 | 1013.1 |
| 20260507003052 | 53 | 0 | 4.0 | 10.0 | 0.00 | 0.00 | 0.00 | 34 | 1013.1 |
| 20260507002546 | 54 | 0 | 4.0 | 10.0 | 0.00 | 0.00 | 0.00 | 34 | 1013.1 |
| 20260507002040 | 54 | 0 | 4.0 | 9.0 | 0.00 | 0.00 | 0.00 | 32 | 1013.1 |
| 20260507001533 | 55 | 0 | 6.0 | 17.0 | 0.00 | 0.00 | 0.00 | 31 | 1013.1 |
| 20260507001028 | 55 | 0 | 7.0 | 17.0 | 0.00 | 0.00 | 0.00 | 29 | 1013.0 |
| 20260507000522 | 55 | 0 | 8.0 | 17.0 | 0.00 | 0.00 | 0.00 | 29 | 1012.9 |
| 20260507000016 | 56 | 0 | 9.0 | 16.0 | 0.00 | 0.00 | 0.00 | 28 | 1012.8 |
| 20260506235004 | 56 | 0 | 6.0 | 15.0 | 0.00 | 0.00 | 0.00 | 27 | 1012.7 |
| 20260506234457 | 56 | 0 | 6.0 | 12.0 | 0.00 | 0.00 | 0.00 | 27 | 1012.7 |
| 20260506233952 | 56 | 0 | 7.0 | 14.0 | 0.00 | 0.00 | 0.00 | 27 | 1012.7 |
| 20260506233445 | 57 | 0 | 7.0 | 14.0 | 0.00 | 0.00 | 0.00 | 26 | 1012.7 |
| 20260506232940 | 57 | 0 | 5.0 | 14.0 | 0.00 | 0.00 | 0.00 | 29 | 1012.7 |
| 20260506231927 | 57 | 0 | 8.0 | 18.0 | 0.00 | 0.00 | 0.00 | 27 | 1012.8 |
| 20260506231422 | 57 | 0 | 8.0 | 18.0 | 0.00 | 0.00 | 0.00 | 26 | 1012.8 |
| 20260506230915 | 58 | 0 | 6.0 | 16.0 | 0.00 | 0.00 | 0.00 | 25 | 1012.6 |
| 20260506230410 | 57 | 0 | 5.0 | 13.0 | 0.00 | 0.00 | 0.00 | 28 | 1012.6 |
| 20260506225903 | 56 | 0 | 5.0 | 13.0 | 0.00 | 0.00 | 0.00 | 28 | 1012.6 |
| 20260506224852 | 56 | 0 | 5.0 | 13.0 | 0.00 | 0.00 | 0.00 | 29 | 1012.6 |
| 20260506224346 | 56 | 0 | 7.0 | 14.0 | 0.00 | 0.00 | 0.00 | 27 | 1012.7 |
| 20260506223840 | 57 | 0 | 8.0 | 15.0 | 0.00 | 0.00 | 0.00 | 26 | 1012.8 |
| 20260506223334 | 57 | 0 | 8.0 | 15.0 | 0.00 | 0.00 | 0.00 | 26 | 1012.7 |
| 20260506222322 | 58 | 0 | 7.0 | 14.0 | 0.00 | 0.00 | 0.00 | 30 | 1012.7 |
| 20260506221309 | 58 | 0 | 6.0 | 14.0 | 0.00 | 0.00 | 0.00 | 27 | 1012.8 |
| 20260506220804 | 58 | 0 | 6.0 | 14.0 | 0.00 | 0.00 | 0.00 | 29 | 1012.9 |
| 20260506220258 | 57 | 0 | 7.0 | 15.0 | 0.00 | 0.00 | 0.00 | 31 | 1012.9 |
| 20260506215752 | 57 | 0 | 7.0 | 15.0 | 0.00 | 0.00 | 0.00 | 29 | 1012.7 |
| 20260506215246 | 58 | 0 | 7.0 | 13.0 | 0.00 | 0.00 | 0.00 | 30 | 1012.7 |
| 20260506214740 | 58 | 0 | 8.0 | 13.0 | 0.00 | 0.00 | 0.00 | 30 | 1012.6 |
| 20260506214234 | 58 | 0 | 7.0 | 15.0 | 0.00 | 0.00 | 0.00 | 32 | 1012.6 |
| 20260506213728 | 58 | 0 | 6.0 | 15.0 | 0.00 | 0.00 | 0.00 | 29 | 1012.6 |
| 20260506213222 | 58 | 0 | 7.0 | 12.0 | 0.00 | 0.00 | 0.00 | 30 | 1012.4 |
| 20260506212716 | 57 | 0 | 7.0 | 13.0 | 0.00 | 0.00 | 0.00 | 31 | 1012.4 |
| 20260506211704 | 57 | 0 | 6.0 | 13.0 | 0.00 | 0.00 | 0.00 | 30 | 1012.5 |
| 20260506211158 | 57 | 0 | 7.0 | 13.0 | 0.00 | 0.00 | 0.00 | 29 | 1012.5 |
| 20260506210651 | 57 | 0 | 7.0 | 17.0 | 0.00 | 0.00 | 0.00 | 32 | 1012.6 |
| 20260506210146 | 57 | 0 | 7.0 | 17.0 | 0.00 | 0.00 | 0.00 | 29 | 1012.6 |
| 20260506205640 | 57 | 0 | 8.0 | 16.0 | 0.00 | 0.00 | 0.00 | 31 | 1012.6 |
| 20260506205134 | 57 | 0 | 8.0 | 16.0 | 0.00 | 0.00 | 0.00 | 30 | 1012.6 |
| 20260506204628 | 57 | 0 | 6.0 | 12.0 | 0.00 | 0.00 | 0.00 | 34 | 1012.7 |
| 20260506204122 | 57 | 0 | 6.0 | 12.0 | 0.00 | 0.00 | 0.00 | 34 | 1012.6 |
| 20260506203616 | 57 | 0 | 6.0 | 13.0 | 0.00 | 0.00 | 0.00 | 32 | 1012.6 |
| 20260506203109 | 57 | 0 | 6.0 | 13.0 | 0.00 | 0.00 | 0.00 | 31 | 1012.7 |
| 20260506202604 | 57 | 0 | 7.0 | 12.0 | 0.00 | 0.00 | 0.00 | 32 | 1012.7 |
| 20260506202058 | 56 | 0 | 8.0 | 16.0 | 0.00 | 0.00 | 0.00 | 31 | 1012.8 |
| 20260506200034 | 57 | 0 | 6.0 | 12.0 | 0.00 | 0.00 | 0.00 | 31 | 1012.9 |
| 20260506195527 | 57 | 0 | 5.0 | 14.0 | 0.00 | 0.00 | 0.00 | 30 | 1012.8 |
| 20260506195022 | 57 | 0 | 7.0 | 14.0 | 0.00 | 0.00 | 0.00 | 29 | 1012.8 |
| 20260506194515 | 57 | 0 | 7.0 | 14.0 | 0.00 | 0.00 | 0.00 | 31 | 1012.8 |
| 20260506194010 | 58 | 0 | 6.0 | 14.0 | 0.00 | 0.00 | 0.00 | 30 | 1012.9 |
| 20260506193503 | 57 | 0 | 7.0 | 17.0 | 0.00 | 0.00 | 0.00 | 29 | 1012.9 |
| 20260506192958 | 57 | 0 | 7.0 | 17.0 | 0.00 | 0.00 | 0.00 | 30 | 1013.0 |
| 20260506191946 | 58 | 0 | 5.0 | 13.0 | 0.00 | 0.00 | 0.00 | 30 | 1012.9 |
| 20260506191439 | 58 | 0 | 5.0 | 10.0 | 0.00 | 0.00 | 0.00 | 31 | 1012.9 |
| 20260506190934 | 58 | 0 | 6.0 | 13.0 | 0.00 | 0.00 | 0.00 | 35 | 1012.9 |
| 20260506185921 | 58 | 0 | 5.0 | 10.0 | 0.00 | 0.00 | 0.00 | 29 | 1013.0 |
| 20260506185416 | 57 | 0 | 5.0 | 14.0 | 0.00 | 0.00 | 0.00 | 32 | 1013.0 |
| 20260506184909 | 58 | 0 | 6.0 | 14.0 | 0.00 | 0.00 | 0.00 | 27 | 1013.0 |
| 20260506184404 | 58 | 0 | 6.0 | 15.0 | 0.00 | 0.00 | 0.00 | 30 | 1013.0 |
| 20260506183858 | 58 | 0 | 5.0 | 15.0 | 0.00 | 0.00 | 0.00 | 29 | 1012.9 |
| 20260506182846 | 58 | 0 | 5.0 | 14.0 | 0.00 | 0.00 | 0.00 | 32 | 1013.0 |
| 20260506182340 | 58 | 0 | 4.0 | 12.0 | 0.00 | 0.00 | 0.00 | 27 | 1012.9 |
| 20260506181833 | 57 | 0 | 4.0 | 12.0 | 0.00 | 0.00 | 0.00 | 29 | 1013.0 |
| 20260506181328 | 56 | 0 | 5.0 | 12.0 | 0.00 | 0.00 | 0.00 | 27 | 1013.0 |
| 20260506180821 | 57 | 0 | 4.0 | 12.0 | 0.00 | 0.00 | 0.00 | 28 | 1013.0 |
| 20260506180316 | 56 | 0 | 4.0 | 11.0 | 0.00 | 0.00 | 0.00 | 27 | 1013.1 |
| 20260506175810 | 57 | 0 | 5.0 | 11.0 | 0.00 | 0.00 | 0.00 | 26 | 1013.2 |
| 20260506175306 | 57 | 0 | 5.0 | 11.0 | 0.00 | 0.00 | 0.00 | 27 | 1013.1 |
| 20260506174757 | 57 | 0 | 4.0 | 11.0 | 0.00 | 0.00 | 0.00 | 28 | 1013.2 |
| 20260506174252 | 58 | 0 | 3.0 | 11.0 | 0.00 | 0.00 | 0.00 | 31 | 1013.3 |
| 20260506173746 | 56 | 0 | 4.0 | 10.0 | 0.00 | 0.00 | 0.00 | 31 | 1013.3 |
| 20260506173239 | 57 | 0 | 3.0 | 10.0 | 0.00 | 0.00 | 0.00 | 33 | 1013.4 |
| 20260506172734 | 56 | 0 | 3.0 | 8.0 | 0.00 | 0.00 | 0.00 | 34 | 1013.4 |
| 20260506172228 | 57 | 0 | 3.0 | 6.0 | 0.00 | 0.00 | 0.00 | 32 | 1013.4 |
| 20260506171216 | 56 | 0 | 3.0 | 9.0 | 0.00 | 0.00 | 0.00 | 38 | 1013.5 |
| 20260506170709 | 55 | 0 | 3.0 | 9.0 | 0.00 | 0.00 | 0.00 | 35 | 1013.4 |
| 20260506170204 | 55 | 0 | 2.0 | 4.0 | 0.00 | 0.00 | 0.00 | 35 | 1013.4 |
| 20260506165658 | 54 | 0 | 2.0 | 4.0 | 0.00 | 0.00 | 0.00 | 35 | 1013.3 |
| 20260506165151 | 54 | 0 | 3.0 | 5.0 | 0.00 | 0.00 | 0.00 | 38 | 1013.3 |
| 20260506164646 | 54 | 0 | 2.0 | 5.0 | 0.00 | 0.00 | 0.00 | 38 | 1013.2 |
| 20260506164139 | 55 | 0 | 1.0 | 5.0 | 0.00 | 0.00 | 0.00 | 39 | 1013.2 |
| 20260506163633 | 53 | 0 | 2.0 | 5.0 | 0.00 | 0.00 | 0.00 | 38 | 1013.1 |
| 20260506163128 | 53 | 0 | 3.0 | 5.0 | 0.00 | 0.00 | 0.00 | 39 | 1013.0 |
| 20260506162621 | 54 | 0 | 2.0 | 5.0 | 0.00 | 0.00 | 0.00 | 40 | 1013.1 |
| 20260506162116 | 53 | 0 | 2.0 | 5.0 | 0.00 | 0.00 | 0.00 | 37 | 1013.0 |
| 20260506161104 | 52 | 0 | 2.0 | 8.0 | 0.00 | 0.00 | 0.00 | 39 | 1012.9 |
| 20260506160052 | 52 | 0 | 2.0 | 5.0 | 0.00 | 0.00 | 0.00 | 40 | 1012.8 |
| 20260506155546 | 53 | 0 | 2.0 | 6.0 | 0.00 | 0.00 | 0.00 | 44 | 1012.8 |
| 20260506155039 | 53 | 0 | 2.0 | 6.0 | 0.00 | 0.00 | 0.00 | 45 | 1012.7 |
| 20260506154534 | 53 | 0 | 2.0 | 5.0 | 0.00 | 0.00 | 0.00 | 45 | 1012.7 |
| 20260506153521 | 51 | 0 | 2.0 | 5.0 | 0.00 | 0.00 | 0.00 | 45 | 1012.6 |
| 20260506152510 | 52 | 0 | 3.0 | 5.0 | 0.00 | 0.00 | 0.00 | 49 | 1012.6 |
| 20260506152004 | 50 | 0 | 3.0 | 6.0 | 0.00 | 0.00 | 0.00 | 46 | 1012.6 |
| 20260506151458 | 51 | 0 | 3.0 | 6.0 | 0.00 | 0.00 | 0.00 | 46 | 1012.6 |
| 20260506150446 | 51 | 0 | 3.0 | 6.0 | 0.00 | 0.00 | 0.00 | 46 | 1012.5 |
| 20260506145939 | 50 | 0 | 3.0 | 6.0 | 0.00 | 0.00 | 0.00 | 48 | 1012.5 |
| 20260506145434 | 50 | 0 | 3.0 | 6.0 | 0.00 | 0.00 | 0.00 | 48 | 1012.5 |
| 20260506144927 | 50 | 0 | 3.0 | 9.0 | 0.00 | 0.00 | 0.00 | 48 | 1012.5 |
| 20260506144428 | 50 | 0 | 2.0 | 9.0 | 0.00 | 0.00 | 0.00 | 50 | 1012.6 |
| 20260506143928 | 50 | 0 | 2.0 | 5.0 | 0.00 | 0.00 | 0.00 | 50 | 1012.7 |
| 20260506143429 | 49 | 0 | 2.0 | 4.0 | 0.00 | 0.00 | 0.00 | 50 | 1012.6 |
| 20260506142927 | 49 | 0 | 1.0 | 4.0 | 0.00 | 0.00 | 0.00 | 52 | 1012.5 |
| 20260506142427 | 49 | 0 | 2.0 | 5.0 | 0.00 | 0.00 | 0.00 | 51 | 1012.6 |
| 20260506141928 | 49 | 0 | 2.0 | 5.0 | 0.00 | 0.00 | 0.00 | 51 | 1012.7 |
| 20260506141428 | 49 | 0 | 3.0 | 8.0 | 0.00 | 0.00 | 0.00 | 51 | 1012.7 |
| 20260506140926 | 49 | 0 | 2.0 | 8.0 | 0.00 | 0.00 | 0.00 | 51 | 1012.8 |
| 20260506140424 | 49 | 0 | 1.0 | 5.0 | 0.00 | 0.00 | 0.00 | 52 | 1012.8 |
| 20260506135425 | 49 | 0 | 2.0 | 5.0 | 0.00 | 0.00 | 0.00 | 52 | 1012.8 |
| 20260506134925 | 48 | 0 | 3.0 | 5.0 | 0.00 | 0.00 | 0.00 | 51 | 1012.7 |
| 20260506133926 | 48 | 0 | 3.0 | 8.0 | 0.00 | 0.00 | 0.00 | 52 | 1012.5 |
| 20260506133424 | 48 | 0 | 3.0 | 8.0 | 0.00 | 0.00 | 0.00 | 53 | 1012.4 |
| 20260506131920 | 47 | 0 | 3.0 | 9.0 | 0.00 | 0.00 | 0.00 | 54 | 1012.0 |
| 20260506131414 | 47 | 0 | 3.0 | 8.0 | 0.00 | 0.00 | 0.00 | 54 | 1011.9 |
| 20260506130908 | 47 | 0 | 3.0 | 8.0 | 0.00 | 0.00 | 0.00 | 55 | 1012.0 |
| 20260506130401 | 47 | 0 | 3.0 | 6.0 | 0.00 | 0.00 | 0.00 | 56 | 1011.9 |
| 20260506125856 | 47 | 0 | 3.0 | 6.0 | 0.00 | 0.00 | 0.00 | 56 | 1011.6 |
| 20260506125349 | 47 | 0 | 3.0 | 8.0 | 0.00 | 0.00 | 0.00 | 56 | 1011.5 |
| 20260506124844 | 47 | 0 | 4.0 | 9.0 | 0.00 | 0.00 | 0.00 | 57 | 1011.5 |
| 20260506124338 | 47 | 0 | 4.0 | 9.0 | 0.00 | 0.00 | 0.00 | 59 | 1011.4 |
| 20260506123832 | 46 | 0 | 3.0 | 6.0 | 0.00 | 0.00 | 0.00 | 60 | 1011.4 |
| 20260506123326 | 46 | 0 | 2.0 | 5.0 | 0.00 | 0.00 | 0.00 | 61 | 1011.4 |
| 20260506122820 | 45 | 0 | 2.0 | 6.0 | 0.00 | 0.01 | 0.00 | 61 | 1011.4 |
| 20260506122313 | 45 | 0 | 3.0 | 6.0 | 0.00 | 0.01 | 0.00 | 62 | 1011.3 |
| 20260506121808 | 45 | 0 | 3.0 | 6.0 | 0.00 | 0.01 | 0.00 | 62 | 1011.2 |
| 20260506120756 | 44 | 0 | 1.0 | 5.0 | 0.00 | 0.01 | 0.00 | 63 | 1010.8 |
| 20260506120250 | 43 | 0 | 1.0 | 5.0 | 0.00 | 0.01 | 0.00 | 63 | 1010.7 |
| 20260506115750 | 43 | 0 | 1.0 | 5.0 | 0.00 | 0.01 | 0.00 | 63 | 1010.7 |
| 20260506115252 | 43 | 0 | 0.0 | 1.0 | 0.00 | 0.01 | 0.00 | 63 | 1010.4 |
| 20260506114750 | 43 | 0 | 0.0 | 1.0 | 0.00 | 0.01 | 0.00 | 62 | 1010.7 |
| 20260506114246 | 43 | 0 | 0.0 | 2.0 | 0.00 | 0.01 | 0.00 | 62 | 1010.7 |
| 20260506113244 | 43 | 0 | 1.0 | 4.0 | 0.00 | 0.01 | 0.00 | 62 | 1010.4 |
| 20260506112745 | 43 | 0 | 1.0 | 6.0 | 0.00 | 0.01 | 0.00 | 62 | 1010.4 |
| 20260506112244 | 43 | 0 | 1.0 | 6.0 | 0.00 | 0.01 | 0.00 | 62 | 1010.2 |